owner,sensor,date,latitude,longitude,vertical_datum,sea_water_practical_salinity,qcFlag 
SCCF RECON,ioos:station:SCCF:53:1,2010-04-01T00:00:00Z,26.6493,-81.8810,2.102,0.32,1111122 
SCCF RECON,ioos:station:SCCF:53:1,2010-04-01T01:00:00Z,26.6493,-81.8810,2.06,0.31,1111122 
SCCF RECON,ioos:station:SCCF:53:1,2010-04-01T02:00:00Z,26.6493,-81.8810,2.02,0.31,1111122 
SCCF RECON,ioos:station:SCCF:53:1,2010-04-01T03:00:00Z,26.6493,-81.8810,1.98,0.31,1111122 
SCCF RECON,ioos:station:SCCF:53:1,2010-04-01T04:00:00Z,26.6493,-81.8810,1.94,0.31,1111122 
SCCF RECON,ioos:station:SCCF:53:1,2010-04-01T05:00:00Z,26.6493,-81.8810,1.9,0.31,1111122 
SCCF RECON,ioos:station:SCCF:53:1,2010-04-01T06:00:00Z,26.6493,-81.8810,1.9,0.31,1111122 
SCCF RECON,ioos:station:SCCF:53:1,2010-04-01T07:00:00Z,26.6493,-81.8810,1.94,0.31,1111122 
SCCF RECON,ioos:station:SCCF:53:1,2010-04-01T08:00:00Z,26.6493,-81.8810,1.97,0.31,1111122 
SCCF RECON,ioos:station:SCCF:53:1,2010-04-01T09:00:00Z,26.6493,-81.8810,2.01,0.31,1111122 
SCCF RECON,ioos:station:SCCF:53:1,2010-04-01T10:00:00Z,26.6493,-81.8810,2.05,0.31,1111122 
SCCF RECON,ioos:station:SCCF:53:1,2010-04-01T11:00:00Z,26.6493,-81.8810,2.05,0.31,1111122 
SCCF RECON,ioos:station:SCCF:53:1,2010-04-01T12:00:00Z,26.6493,-81.8810,2.02,0.31,1111122 
SCCF RECON,ioos:station:SCCF:53:1,2010-04-01T13:00:00Z,26.6493,-81.8810,1.99,0.31,1111122 
SCCF RECON,ioos:station:SCCF:53:1,2010-04-01T14:00:00Z,26.6493,-81.8810,1.96,0.31,1111122 
SCCF RECON,ioos:station:SCCF:53:1,2010-04-01T15:00:00Z,26.6493,-81.8810,1.93,0.32,1111122 
SCCF RECON,ioos:station:SCCF:53:1,2010-04-01T16:00:00Z,26.6493,-81.8810,1.924,0.32,1111122 
SCCF RECON,ioos:station:SCCF:53:1,2010-04-01T17:00:00Z,26.6493,-81.8810,1.978,0.32,1111122 
SCCF RECON,ioos:station:SCCF:53:1,2010-04-01T18:00:00Z,26.6493,-81.8810,2.03,0.32,1111122 
SCCF RECON,ioos:station:SCCF:53:1,2010-04-01T19:00:00Z,26.6493,-81.8810,2.08,0.31,1111122 
SCCF RECON,ioos:station:SCCF:53:1,2010-04-01T20:00:00Z,26.6493,-81.8810,2.149,0.32,1111122 
SCCF RECON,ioos:station:SCCF:53:1,2010-04-01T21:00:00Z,26.6493,-81.8810,2.207,0.32,1111122 
SCCF RECON,ioos:station:SCCF:53:1,2010-04-01T22:00:00Z,26.6493,-81.8810,2.227,0.32,1111122 
SCCF RECON,ioos:station:SCCF:53:1,2010-04-01T23:00:00Z,26.6493,-81.8810,2.2,0.32,1111122 
SCCF RECON,ioos:station:SCCF:53:1,2010-04-02T00:00:00Z,26.6493,-81.8810,2.14,0.32,1111122 
SCCF RECON,ioos:station:SCCF:53:1,2010-04-02T01:00:00Z,26.6493,-81.8810,2.09,0.32,1111122 
SCCF RECON,ioos:station:SCCF:53:1,2010-04-02T02:00:00Z,26.6493,-81.8810,2.05,0.32,1111122 
SCCF RECON,ioos:station:SCCF:53:1,2010-04-02T03:00:00Z,26.6493,-81.8810,2.0,0.32,1111122 
SCCF RECON,ioos:station:SCCF:53:1,2010-04-02T04:00:00Z,26.6493,-81.8810,1.95,0.31,1111122 
SCCF RECON,ioos:station:SCCF:53:1,2010-04-02T05:00:00Z,26.6493,-81.8810,1.902,0.31,1111122 
SCCF RECON,ioos:station:SCCF:53:1,2010-04-02T06:00:00Z,26.6493,-81.8810,1.88,0.31,1111122 
SCCF RECON,ioos:station:SCCF:53:1,2010-04-02T07:00:00Z,26.6493,-81.8810,1.89,0.31,1111122 
SCCF RECON,ioos:station:SCCF:53:1,2010-04-02T08:00:00Z,26.6493,-81.8810,1.93,0.31,1111122 
SCCF RECON,ioos:station:SCCF:53:1,2010-04-02T09:00:00Z,26.6493,-81.8810,1.97,0.31,1111122 
SCCF RECON,ioos:station:SCCF:53:1,2010-04-02T10:00:00Z,26.6493,-81.8810,2.02,0.32,1111122 
SCCF RECON,ioos:station:SCCF:53:1,2010-04-02T11:00:00Z,26.6493,-81.8810,2.04,0.32,1111122 
SCCF RECON,ioos:station:SCCF:53:1,2010-04-02T12:00:00Z,26.6493,-81.8810,2.03,0.32,1111122 
SCCF RECON,ioos:station:SCCF:53:1,2010-04-02T13:00:00Z,26.6493,-81.8810,2.009,0.32,1111122 
SCCF RECON,ioos:station:SCCF:53:1,2010-04-02T14:00:00Z,26.6493,-81.8810,1.981,0.31,1111122 
SCCF RECON,ioos:station:SCCF:53:1,2010-04-02T15:00:00Z,26.6493,-81.8810,1.964,0.31,1111122 
SCCF RECON,ioos:station:SCCF:53:1,2010-04-02T16:00:00Z,26.6493,-81.8810,1.964,0.31,1111122 
SCCF RECON,ioos:station:SCCF:53:1,2010-04-02T17:00:00Z,26.6493,-81.8810,2.01,0.31,1111122 
SCCF RECON,ioos:station:SCCF:53:1,2010-04-02T18:00:00Z,26.6493,-81.8810,2.07,0.32,1111122 
SCCF RECON,ioos:station:SCCF:53:1,2010-04-02T19:00:00Z,26.6493,-81.8810,2.119,0.32,1111122 
SCCF RECON,ioos:station:SCCF:53:1,2010-04-02T20:00:00Z,26.6493,-81.8810,2.177,0.33,1111122 
SCCF RECON,ioos:station:SCCF:53:1,2010-04-02T21:00:00Z,26.6493,-81.8810,2.235,0.33,1111122 
SCCF RECON,ioos:station:SCCF:53:1,2010-04-02T22:00:00Z,26.6493,-81.8810,2.28,0.34,1111122 
SCCF RECON,ioos:station:SCCF:53:1,2010-04-02T23:00:00Z,26.6493,-81.8810,2.28,0.34,1111122 
SCCF RECON,ioos:station:SCCF:53:1,2010-04-03T00:00:00Z,26.6493,-81.8810,2.232,0.33,1111122 
SCCF RECON,ioos:station:SCCF:53:1,2010-04-03T01:00:00Z,26.6493,-81.8810,2.18,0.33,1111122 
SCCF RECON,ioos:station:SCCF:53:1,2010-04-03T02:00:00Z,26.6493,-81.8810,2.14,0.32,1111122 
SCCF RECON,ioos:station:SCCF:53:1,2010-04-03T03:00:00Z,26.6493,-81.8810,2.09,0.31,1111122 
SCCF RECON,ioos:station:SCCF:53:1,2010-04-03T04:00:00Z,26.6493,-81.8810,2.04,0.31,1111122 
SCCF RECON,ioos:station:SCCF:53:1,2010-04-03T05:00:00Z,26.6493,-81.8810,1.99,0.32,1111122 
SCCF RECON,ioos:station:SCCF:53:1,2010-04-03T06:00:00Z,26.6493,-81.8810,1.95,0.31,1111122 
SCCF RECON,ioos:station:SCCF:53:1,2010-04-03T07:00:00Z,26.6493,-81.8810,1.92,0.31,1111122 
SCCF RECON,ioos:station:SCCF:53:1,2010-04-03T08:00:00Z,26.6493,-81.8810,1.95,0.31,1111122 
SCCF RECON,ioos:station:SCCF:53:1,2010-04-03T09:00:00Z,26.6493,-81.8810,1.98,0.31,1111122 
SCCF RECON,ioos:station:SCCF:53:1,2010-04-03T10:00:00Z,26.6493,-81.8810,2.01,0.31,1111122 
SCCF RECON,ioos:station:SCCF:53:1,2010-04-03T11:00:00Z,26.6493,-81.8810,2.04,0.32,1111122 
SCCF RECON,ioos:station:SCCF:53:1,2010-04-03T12:00:00Z,26.6493,-81.8810,2.062,0.32,1111122 
SCCF RECON,ioos:station:SCCF:53:1,2010-04-03T13:00:00Z,26.6493,-81.8810,2.069,0.32,1111122 
SCCF RECON,ioos:station:SCCF:53:1,2010-04-03T14:00:00Z,26.6493,-81.8810,2.06,0.32,1111122 
SCCF RECON,ioos:station:SCCF:53:1,2010-04-03T15:00:00Z,26.6493,-81.8810,2.041,0.32,1111122 
SCCF RECON,ioos:station:SCCF:53:1,2010-04-03T16:00:00Z,26.6493,-81.8810,2.03,0.32,1111122 
SCCF RECON,ioos:station:SCCF:53:1,2010-04-03T17:00:00Z,26.6493,-81.8810,2.039,0.32,1111122 
SCCF RECON,ioos:station:SCCF:53:1,2010-04-03T18:00:00Z,26.6493,-81.8810,2.078,0.32,1111122 
SCCF RECON,ioos:station:SCCF:53:1,2010-04-03T19:00:00Z,26.6493,-81.8810,2.125,0.32,1111122 
SCCF RECON,ioos:station:SCCF:53:1,2010-04-03T20:00:00Z,26.6493,-81.8810,2.172,0.32,1111122 
SCCF RECON,ioos:station:SCCF:53:1,2010-04-03T21:00:00Z,26.6493,-81.8810,2.237,0.33,1111122 
SCCF RECON,ioos:station:SCCF:53:1,2010-04-03T22:00:00Z,26.6493,-81.8810,2.295,0.34,1111122 
SCCF RECON,ioos:station:SCCF:53:1,2010-04-03T23:00:00Z,26.6493,-81.8810,2.323,0.34,1111122 
SCCF RECON,ioos:station:SCCF:53:1,2010-04-04T00:00:00Z,26.6493,-81.8810,2.3,0.34,1111122 
SCCF RECON,ioos:station:SCCF:53:1,2010-04-04T01:00:00Z,26.6493,-81.8810,2.248,0.33,1111122 
SCCF RECON,ioos:station:SCCF:53:1,2010-04-04T02:00:00Z,26.6493,-81.8810,2.19,0.32,1111122 
SCCF RECON,ioos:station:SCCF:53:1,2010-04-04T03:00:00Z,26.6493,-81.8810,2.14,0.32,1111122 
SCCF RECON,ioos:station:SCCF:53:1,2010-04-04T04:00:00Z,26.6493,-81.8810,2.09,0.32,1111122 
SCCF RECON,ioos:station:SCCF:53:1,2010-04-04T05:00:00Z,26.6493,-81.8810,2.05,0.31,1111122 
SCCF RECON,ioos:station:SCCF:53:1,2010-04-04T06:00:00Z,26.6493,-81.8810,1.99,0.31,1111122 
SCCF RECON,ioos:station:SCCF:53:1,2010-04-04T07:00:00Z,26.6493,-81.8810,1.95,0.31,1111122 
SCCF RECON,ioos:station:SCCF:53:1,2010-04-04T08:00:00Z,26.6493,-81.8810,1.93,0.31,1111122 
SCCF RECON,ioos:station:SCCF:53:1,2010-04-04T09:00:00Z,26.6493,-81.8810,1.94,0.31,1111122 
SCCF RECON,ioos:station:SCCF:53:1,2010-04-04T10:00:00Z,26.6493,-81.8810,1.961,0.31,1111122 
SCCF RECON,ioos:station:SCCF:53:1,2010-04-04T11:00:00Z,26.6493,-81.8810,1.994,0.31,1111122 
SCCF RECON,ioos:station:SCCF:53:1,2010-04-04T12:00:00Z,26.6493,-81.8810,2.03,0.31,1111122 
SCCF RECON,ioos:station:SCCF:53:1,2010-04-04T13:00:00Z,26.6493,-81.8810,2.05,0.32,1111122 
SCCF RECON,ioos:station:SCCF:53:1,2010-04-04T14:00:00Z,26.6493,-81.8810,2.071,0.32,1111122 
SCCF RECON,ioos:station:SCCF:53:1,2010-04-04T15:00:00Z,26.6493,-81.8810,2.085,0.31,1111122 
SCCF RECON,ioos:station:SCCF:53:1,2010-04-04T16:00:00Z,26.6493,-81.8810,2.1,0.31,1111122 
SCCF RECON,ioos:station:SCCF:53:1,2010-04-04T17:00:00Z,26.6493,-81.8810,2.118,0.31,1111122 
SCCF RECON,ioos:station:SCCF:53:1,2010-04-04T18:00:00Z,26.6493,-81.8810,2.131,0.32,1111122 
SCCF RECON,ioos:station:SCCF:53:1,2010-04-04T19:00:00Z,26.6493,-81.8810,2.156,0.32,1111122 
SCCF RECON,ioos:station:SCCF:53:1,2010-04-04T20:00:00Z,26.6493,-81.8810,2.189,0.32,1111122 
SCCF RECON,ioos:station:SCCF:53:1,2010-04-04T21:00:00Z,26.6493,-81.8810,2.24,0.33,1111122 
SCCF RECON,ioos:station:SCCF:53:1,2010-04-04T22:00:00Z,26.6493,-81.8810,2.28,0.39,1111122 
SCCF RECON,ioos:station:SCCF:53:1,2010-04-04T23:00:00Z,26.6493,-81.8810,2.299,0.62,1111122 
SCCF RECON,ioos:station:SCCF:53:1,2010-04-05T00:00:00Z,26.6493,-81.8810,2.29,0.63,1111122 
SCCF RECON,ioos:station:SCCF:53:1,2010-04-05T01:00:00Z,26.6493,-81.8810,2.253,0.64,1111122 
SCCF RECON,ioos:station:SCCF:53:1,2010-04-05T02:00:00Z,26.6493,-81.8810,2.2,0.36,1111122 
SCCF RECON,ioos:station:SCCF:53:1,2010-04-05T03:00:00Z,26.6493,-81.8810,2.15,0.45,1111122 
SCCF RECON,ioos:station:SCCF:53:1,2010-04-05T04:00:00Z,26.6493,-81.8810,2.1,0.39,1111122 
SCCF RECON,ioos:station:SCCF:53:1,2010-04-05T05:00:00Z,26.6493,-81.8810,2.06,0.34,1111122 
SCCF RECON,ioos:station:SCCF:53:1,2010-04-05T06:00:00Z,26.6493,-81.8810,2.01,0.33,1111122 
SCCF RECON,ioos:station:SCCF:53:1,2010-04-05T07:00:00Z,26.6493,-81.8810,1.96,0.32,1111122 
SCCF RECON,ioos:station:SCCF:53:1,2010-04-05T08:00:00Z,26.6493,-81.8810,1.92,0.34,1111122 
SCCF RECON,ioos:station:SCCF:53:1,2010-04-05T09:00:00Z,26.6493,-81.8810,1.9,0.32,1111122 
SCCF RECON,ioos:station:SCCF:53:1,2010-04-05T10:00:00Z,26.6493,-81.8810,1.9,0.32,1111122 
SCCF RECON,ioos:station:SCCF:53:1,2010-04-05T11:00:00Z,26.6493,-81.8810,1.91,0.34,1111122 
SCCF RECON,ioos:station:SCCF:53:1,2010-04-05T12:00:00Z,26.6493,-81.8810,1.94,0.35,1111122 
SCCF RECON,ioos:station:SCCF:53:1,2010-04-05T13:00:00Z,26.6493,-81.8810,1.98,0.43,1111122 
SCCF RECON,ioos:station:SCCF:53:1,2010-04-05T14:00:00Z,26.6493,-81.8810,2.011,0.39,1111122 
SCCF RECON,ioos:station:SCCF:53:1,2010-04-05T15:00:00Z,26.6493,-81.8810,2.041,0.64,1111122 
SCCF RECON,ioos:station:SCCF:53:1,2010-04-05T16:00:00Z,26.6493,-81.8810,2.07,0.51,1111122 
SCCF RECON,ioos:station:SCCF:53:1,2010-04-05T17:00:00Z,26.6493,-81.8810,2.09,0.89,1111122 
SCCF RECON,ioos:station:SCCF:53:1,2010-04-05T18:00:00Z,26.6493,-81.8810,2.116,0.83,1111122 
SCCF RECON,ioos:station:SCCF:53:1,2010-04-05T19:00:00Z,26.6493,-81.8810,2.13,1.74,1111122 
SCCF RECON,ioos:station:SCCF:53:1,2010-04-05T20:00:00Z,26.6493,-81.8810,2.151,2.04,1111122 
SCCF RECON,ioos:station:SCCF:53:1,2010-04-05T21:00:00Z,26.6493,-81.8810,2.18,2.68,1111122 
SCCF RECON,ioos:station:SCCF:53:1,2010-04-05T22:00:00Z,26.6493,-81.8810,2.223,2.52,1111122 
SCCF RECON,ioos:station:SCCF:53:1,2010-04-05T23:00:00Z,26.6493,-81.8810,2.271,2.7,1111122 
SCCF RECON,ioos:station:SCCF:53:1,2010-04-06T00:00:00Z,26.6493,-81.8810,2.296,2.98,1111122 
SCCF RECON,ioos:station:SCCF:53:1,2010-04-06T01:00:00Z,26.6493,-81.8810,2.29,2.9,1111122 
SCCF RECON,ioos:station:SCCF:53:1,2010-04-06T02:00:00Z,26.6493,-81.8810,2.25,2.48,1111122 
SCCF RECON,ioos:station:SCCF:53:1,2010-04-06T03:00:00Z,26.6493,-81.8810,2.2,2.43,1111122 
SCCF RECON,ioos:station:SCCF:53:1,2010-04-06T04:00:00Z,26.6493,-81.8810,2.15,1.65,1111122 
SCCF RECON,ioos:station:SCCF:53:1,2010-04-06T05:00:00Z,26.6493,-81.8810,2.1,1.9,1111122 
SCCF RECON,ioos:station:SCCF:53:1,2010-04-06T06:00:00Z,26.6493,-81.8810,2.05,1.77,1111122 
SCCF RECON,ioos:station:SCCF:53:1,2010-04-06T07:00:00Z,26.6493,-81.8810,1.991,1.67,1111122 
SCCF RECON,ioos:station:SCCF:53:1,2010-04-06T08:00:00Z,26.6493,-81.8810,1.94,1.55,1111122 
SCCF RECON,ioos:station:SCCF:53:1,2010-04-06T09:00:00Z,26.6493,-81.8810,1.9,1.16,1111122 
SCCF RECON,ioos:station:SCCF:53:1,2010-04-06T10:00:00Z,26.6493,-81.8810,1.88,0.99,1111122 
SCCF RECON,ioos:station:SCCF:53:1,2010-04-06T11:00:00Z,26.6493,-81.8810,1.89,0.96,1111122 
SCCF RECON,ioos:station:SCCF:53:1,2010-04-06T12:00:00Z,26.6493,-81.8810,1.92,1.19,1111122 
SCCF RECON,ioos:station:SCCF:53:1,2010-04-06T13:00:00Z,26.6493,-81.8810,1.96,2.24,1111122 
SCCF RECON,ioos:station:SCCF:53:1,2010-04-06T14:00:00Z,26.6493,-81.8810,2.0,2.04,1111122 
SCCF RECON,ioos:station:SCCF:53:1,2010-04-06T15:00:00Z,26.6493,-81.8810,2.044,2.32,1111122 
SCCF RECON,ioos:station:SCCF:53:1,2010-04-06T16:00:00Z,26.6493,-81.8810,2.085,2.2,1111122 
SCCF RECON,ioos:station:SCCF:53:1,2010-04-06T17:00:00Z,26.6493,-81.8810,2.108,2.37,1111122 
SCCF RECON,ioos:station:SCCF:53:1,2010-04-06T18:00:00Z,26.6493,-81.8810,2.114,1.63,1111122 
SCCF RECON,ioos:station:SCCF:53:1,2010-04-06T19:00:00Z,26.6493,-81.8810,2.118,1.74,1111122 
SCCF RECON,ioos:station:SCCF:53:1,2010-04-06T20:00:00Z,26.6493,-81.8810,2.13,2.1,1111122 
SCCF RECON,ioos:station:SCCF:53:1,2010-04-06T21:00:00Z,26.6493,-81.8810,2.149,2.43,1111122 
SCCF RECON,ioos:station:SCCF:53:1,2010-04-06T22:00:00Z,26.6493,-81.8810,2.19,2.9,1111122 
SCCF RECON,ioos:station:SCCF:53:1,2010-04-06T23:00:00Z,26.6493,-81.8810,2.238,3.14,1111122 
SCCF RECON,ioos:station:SCCF:53:1,2010-04-07T00:00:00Z,26.6493,-81.8810,2.262,1.49,1111122 
SCCF RECON,ioos:station:SCCF:53:1,2010-04-07T01:00:00Z,26.6493,-81.8810,2.289,1.38,1111122 
SCCF RECON,ioos:station:SCCF:53:1,2010-04-07T02:00:00Z,26.6493,-81.8810,2.28,2.1,1111122 
SCCF RECON,ioos:station:SCCF:53:1,2010-04-07T03:00:00Z,26.6493,-81.8810,2.23,2.32,1111122 
SCCF RECON,ioos:station:SCCF:53:1,2010-04-07T04:00:00Z,26.6493,-81.8810,2.187,2.01,1111122 
SCCF RECON,ioos:station:SCCF:53:1,2010-04-07T05:00:00Z,26.6493,-81.8810,2.137,1.82,1111122 
SCCF RECON,ioos:station:SCCF:53:1,2010-04-07T06:00:00Z,26.6493,-81.8810,2.09,1.57,1111122 
SCCF RECON,ioos:station:SCCF:53:1,2010-04-07T07:00:00Z,26.6493,-81.8810,2.04,1.46,1111122 
SCCF RECON,ioos:station:SCCF:53:1,2010-04-07T08:00:00Z,26.6493,-81.8810,1.99,1.47,1111122 
SCCF RECON,ioos:station:SCCF:53:1,2010-04-07T09:00:00Z,26.6493,-81.8810,1.95,1.16,1111122 
SCCF RECON,ioos:station:SCCF:53:1,2010-04-07T10:00:00Z,26.6493,-81.8810,1.91,1.18,1111122 
SCCF RECON,ioos:station:SCCF:53:1,2010-04-07T11:00:00Z,26.6493,-81.8810,1.89,1.23,1111122 
SCCF RECON,ioos:station:SCCF:53:1,2010-04-07T12:00:00Z,26.6493,-81.8810,1.91,1.32,1111122 
SCCF RECON,ioos:station:SCCF:53:1,2010-04-07T13:00:00Z,26.6493,-81.8810,1.95,2.34,1111122 
SCCF RECON,ioos:station:SCCF:53:1,2010-04-07T14:00:00Z,26.6493,-81.8810,1.997,2.51,1111122 
SCCF RECON,ioos:station:SCCF:53:1,2010-04-07T15:00:00Z,26.6493,-81.8810,2.05,2.67,1111122 
SCCF RECON,ioos:station:SCCF:53:1,2010-04-07T16:00:00Z,26.6493,-81.8810,2.1,2.73,1111122 
SCCF RECON,ioos:station:SCCF:53:1,2010-04-07T17:00:00Z,26.6493,-81.8810,2.14,2.51,1111122 
SCCF RECON,ioos:station:SCCF:53:1,2010-04-07T18:00:00Z,26.6493,-81.8810,2.18,2.63,1111122 
SCCF RECON,ioos:station:SCCF:53:1,2010-04-07T19:00:00Z,26.6493,-81.8810,2.19,2.15,1111122 
SCCF RECON,ioos:station:SCCF:53:1,2010-04-07T20:00:00Z,26.6493,-81.8810,2.189,1.91,1111122 
SCCF RECON,ioos:station:SCCF:53:1,2010-04-07T21:00:00Z,26.6493,-81.8810,2.188,2.12,1111122 
SCCF RECON,ioos:station:SCCF:53:1,2010-04-07T22:00:00Z,26.6493,-81.8810,2.188,1.55,1111122 
SCCF RECON,ioos:station:SCCF:53:1,2010-04-07T23:00:00Z,26.6493,-81.8810,2.2,1.47,1111122 
SCCF RECON,ioos:station:SCCF:53:1,2010-04-08T00:00:00Z,26.6493,-81.8810,1.0,-9999.0,1111122 
SCCF RECON,ioos:station:SCCF:53:1,2010-04-08T01:00:00Z,26.6493,-81.8810,2.27,1.5,1111122 
SCCF RECON,ioos:station:SCCF:53:1,2010-04-08T02:00:00Z,26.6493,-81.8810,2.29,1.46,1111122 
SCCF RECON,ioos:station:SCCF:53:1,2010-04-08T03:00:00Z,26.6493,-81.8810,2.29,1.48,1111122 
SCCF RECON,ioos:station:SCCF:53:1,2010-04-08T04:00:00Z,26.6493,-81.8810,2.26,1.33,1111122 
SCCF RECON,ioos:station:SCCF:53:1,2010-04-08T05:00:00Z,26.6493,-81.8810,2.21,1.36,1111122 
SCCF RECON,ioos:station:SCCF:53:1,2010-04-08T06:00:00Z,26.6493,-81.8810,2.16,1.22,1111122 
SCCF RECON,ioos:station:SCCF:53:1,2010-04-08T07:00:00Z,26.6493,-81.8810,2.11,1.01,1111122 
SCCF RECON,ioos:station:SCCF:53:1,2010-04-08T08:00:00Z,26.6493,-81.8810,2.06,0.82,1111122 
SCCF RECON,ioos:station:SCCF:53:1,2010-04-08T09:00:00Z,26.6493,-81.8810,2.01,0.71,1111122 
SCCF RECON,ioos:station:SCCF:53:1,2010-04-08T10:00:00Z,26.6493,-81.8810,1.97,0.64,1111122 
SCCF RECON,ioos:station:SCCF:53:1,2010-04-08T11:00:00Z,26.6493,-81.8810,1.938,0.58,1111122 
SCCF RECON,ioos:station:SCCF:53:1,2010-04-08T12:00:00Z,26.6493,-81.8810,1.932,0.54,1111122 
SCCF RECON,ioos:station:SCCF:53:1,2010-04-08T13:00:00Z,26.6493,-81.8810,1.95,0.54,1111122 
SCCF RECON,ioos:station:SCCF:53:1,2010-04-08T14:00:00Z,26.6493,-81.8810,2.0,0.56,1111122 
SCCF RECON,ioos:station:SCCF:53:1,2010-04-08T15:00:00Z,26.6493,-81.8810,2.06,0.73,1111122 
SCCF RECON,ioos:station:SCCF:53:1,2010-04-08T16:00:00Z,26.6493,-81.8810,2.109,0.87,1111122 
SCCF RECON,ioos:station:SCCF:53:1,2010-04-08T17:00:00Z,26.6493,-81.8810,2.157,1.08,1111122 
SCCF RECON,ioos:station:SCCF:53:1,2010-04-08T18:00:00Z,26.6493,-81.8810,2.194,1.23,1111122 
SCCF RECON,ioos:station:SCCF:53:1,2010-04-08T19:00:00Z,26.6493,-81.8810,2.217,1.3,1111122 
SCCF RECON,ioos:station:SCCF:53:1,2010-04-08T20:00:00Z,26.6493,-81.8810,2.219,1.3,1111122 
SCCF RECON,ioos:station:SCCF:53:1,2010-04-08T21:00:00Z,26.6493,-81.8810,2.208,1.23,1111122 
SCCF RECON,ioos:station:SCCF:53:1,2010-04-08T22:00:00Z,26.6493,-81.8810,2.195,1.19,1111122 
SCCF RECON,ioos:station:SCCF:53:1,2010-04-08T23:00:00Z,26.6493,-81.8810,2.186,0.95,1111122 
SCCF RECON,ioos:station:SCCF:53:1,2010-04-09T00:00:00Z,26.6493,-81.8810,2.186,0.72,1111122 
SCCF RECON,ioos:station:SCCF:53:1,2010-04-09T01:00:00Z,26.6493,-81.8810,2.213,0.68,1111122 
SCCF RECON,ioos:station:SCCF:53:1,2010-04-09T02:00:00Z,26.6493,-81.8810,2.253,0.67,1111122 
SCCF RECON,ioos:station:SCCF:53:1,2010-04-09T03:00:00Z,26.6493,-81.8810,2.288,0.76,1111122 
SCCF RECON,ioos:station:SCCF:53:1,2010-04-09T04:00:00Z,26.6493,-81.8810,2.321,0.98,1111122 
SCCF RECON,ioos:station:SCCF:53:1,2010-04-09T05:00:00Z,26.6493,-81.8810,2.335,0.85,1111122 
SCCF RECON,ioos:station:SCCF:53:1,2010-04-09T06:00:00Z,26.6493,-81.8810,2.298,0.7,1111122 
SCCF RECON,ioos:station:SCCF:53:1,2010-04-09T07:00:00Z,26.6493,-81.8810,2.26,0.67,1111122 
SCCF RECON,ioos:station:SCCF:53:1,2010-04-09T08:00:00Z,26.6493,-81.8810,2.211,0.6,1111122 
SCCF RECON,ioos:station:SCCF:53:1,2010-04-09T09:00:00Z,26.6493,-81.8810,2.167,0.52,1111122 
SCCF RECON,ioos:station:SCCF:53:1,2010-04-09T10:00:00Z,26.6493,-81.8810,2.122,0.48,1111122 
SCCF RECON,ioos:station:SCCF:53:1,2010-04-09T11:00:00Z,26.6493,-81.8810,2.089,0.45,1111122 
SCCF RECON,ioos:station:SCCF:53:1,2010-04-09T12:00:00Z,26.6493,-81.8810,2.04,0.49,1111122 
SCCF RECON,ioos:station:SCCF:53:1,2010-04-09T13:00:00Z,26.6493,-81.8810,2.029,0.46,1111122 
SCCF RECON,ioos:station:SCCF:53:1,2010-04-09T14:00:00Z,26.6493,-81.8810,2.06,0.44,1111122 
SCCF RECON,ioos:station:SCCF:53:1,2010-04-09T15:00:00Z,26.6493,-81.8810,2.129,0.51,1111122 
SCCF RECON,ioos:station:SCCF:53:1,2010-04-09T16:00:00Z,26.6493,-81.8810,2.184,0.48,1111122 
SCCF RECON,ioos:station:SCCF:53:1,2010-04-09T17:00:00Z,26.6493,-81.8810,2.225,0.47,1111122 
SCCF RECON,ioos:station:SCCF:53:1,2010-04-09T18:00:00Z,26.6493,-81.8810,2.258,0.47,1111122 
SCCF RECON,ioos:station:SCCF:53:1,2010-04-09T19:00:00Z,26.6493,-81.8810,2.266,0.55,1111122 
SCCF RECON,ioos:station:SCCF:53:1,2010-04-09T20:00:00Z,26.6493,-81.8810,2.229,0.54,1111122 
SCCF RECON,ioos:station:SCCF:53:1,2010-04-09T21:00:00Z,26.6493,-81.8810,2.177,0.51,1111122 
SCCF RECON,ioos:station:SCCF:53:1,2010-04-09T22:00:00Z,26.6493,-81.8810,2.13,0.5,1111122 
SCCF RECON,ioos:station:SCCF:53:1,2010-04-09T23:00:00Z,26.6493,-81.8810,2.096,0.39,1111122 
SCCF RECON,ioos:station:SCCF:53:1,2010-04-10T00:00:00Z,26.6493,-81.8810,2.078,0.38,1111122 
SCCF RECON,ioos:station:SCCF:53:1,2010-04-10T01:00:00Z,26.6493,-81.8810,2.08,0.35,1111122 
SCCF RECON,ioos:station:SCCF:53:1,2010-04-10T02:00:00Z,26.6493,-81.8810,2.094,0.33,1111122 
SCCF RECON,ioos:station:SCCF:53:1,2010-04-10T03:00:00Z,26.6493,-81.8810,2.129,0.36,1111122 
SCCF RECON,ioos:station:SCCF:53:1,2010-04-10T04:00:00Z,26.6493,-81.8810,2.15,0.37,1111122 
SCCF RECON,ioos:station:SCCF:53:1,2010-04-10T05:00:00Z,26.6493,-81.8810,2.181,0.37,1111122 
SCCF RECON,ioos:station:SCCF:53:1,2010-04-10T06:00:00Z,26.6493,-81.8810,2.18,0.38,1111122 
SCCF RECON,ioos:station:SCCF:53:1,2010-04-10T07:00:00Z,26.6493,-81.8810,2.14,0.38,1111122 
SCCF RECON,ioos:station:SCCF:53:1,2010-04-10T08:00:00Z,26.6493,-81.8810,2.09,0.32,1111122 
SCCF RECON,ioos:station:SCCF:53:1,2010-04-10T09:00:00Z,26.6493,-81.8810,2.05,0.33,1111122 
SCCF RECON,ioos:station:SCCF:53:1,2010-04-10T10:00:00Z,26.6493,-81.8810,2.01,0.34,1111122 
SCCF RECON,ioos:station:SCCF:53:1,2010-04-10T11:00:00Z,26.6493,-81.8810,1.977,0.32,1111122 
SCCF RECON,ioos:station:SCCF:53:1,2010-04-10T12:00:00Z,26.6493,-81.8810,1.94,0.31,1111122 
SCCF RECON,ioos:station:SCCF:53:1,2010-04-10T13:00:00Z,26.6493,-81.8810,1.919,0.31,1111122 
SCCF RECON,ioos:station:SCCF:53:1,2010-04-10T14:00:00Z,26.6493,-81.8810,1.92,0.31,1111122 
SCCF RECON,ioos:station:SCCF:53:1,2010-04-10T15:00:00Z,26.6493,-81.8810,1.94,0.32,1111122 
SCCF RECON,ioos:station:SCCF:53:1,2010-04-10T16:00:00Z,26.6493,-81.8810,1.978,0.33,1111122 
SCCF RECON,ioos:station:SCCF:53:1,2010-04-10T17:00:00Z,26.6493,-81.8810,2.022,0.38,1111122 
SCCF RECON,ioos:station:SCCF:53:1,2010-04-10T18:00:00Z,26.6493,-81.8810,2.06,0.46,1111122 
SCCF RECON,ioos:station:SCCF:53:1,2010-04-10T19:00:00Z,26.6493,-81.8810,2.081,0.57,1111122 
SCCF RECON,ioos:station:SCCF:53:1,2010-04-10T20:00:00Z,26.6493,-81.8810,2.083,0.7,1111122 
SCCF RECON,ioos:station:SCCF:53:1,2010-04-10T21:00:00Z,26.6493,-81.8810,2.044,0.55,1111122 
SCCF RECON,ioos:station:SCCF:53:1,2010-04-10T22:00:00Z,26.6493,-81.8810,2.01,0.51,1111122 
SCCF RECON,ioos:station:SCCF:53:1,2010-04-10T23:00:00Z,26.6493,-81.8810,1.978,0.39,1111122 
SCCF RECON,ioos:station:SCCF:53:1,2010-04-11T00:00:00Z,26.6493,-81.8810,1.949,0.37,1111122 
SCCF RECON,ioos:station:SCCF:53:1,2010-04-11T01:00:00Z,26.6493,-81.8810,1.94,0.38,1111122 
SCCF RECON,ioos:station:SCCF:53:1,2010-04-11T02:00:00Z,26.6493,-81.8810,1.959,0.57,1111122 
SCCF RECON,ioos:station:SCCF:53:1,2010-04-11T03:00:00Z,26.6493,-81.8810,1.997,0.44,1111122 
SCCF RECON,ioos:station:SCCF:53:1,2010-04-11T04:00:00Z,26.6493,-81.8810,2.03,0.46,1111122 
SCCF RECON,ioos:station:SCCF:53:1,2010-04-11T05:00:00Z,26.6493,-81.8810,2.07,0.69,1111122 
SCCF RECON,ioos:station:SCCF:53:1,2010-04-11T06:00:00Z,26.6493,-81.8810,2.095,0.8,1111122 
SCCF RECON,ioos:station:SCCF:53:1,2010-04-11T07:00:00Z,26.6493,-81.8810,2.1,1.18,1111122 
SCCF RECON,ioos:station:SCCF:53:1,2010-04-11T08:00:00Z,26.6493,-81.8810,2.065,0.95,1111122 
SCCF RECON,ioos:station:SCCF:53:1,2010-04-11T09:00:00Z,26.6493,-81.8810,2.02,0.81,1111122 
SCCF RECON,ioos:station:SCCF:53:1,2010-04-11T10:00:00Z,26.6493,-81.8810,1.98,0.61,1111122 
SCCF RECON,ioos:station:SCCF:53:1,2010-04-11T11:00:00Z,26.6493,-81.8810,1.95,0.6,1111122 
SCCF RECON,ioos:station:SCCF:53:1,2010-04-11T12:00:00Z,26.6493,-81.8810,1.91,0.49,1111122 
SCCF RECON,ioos:station:SCCF:53:1,2010-04-11T13:00:00Z,26.6493,-81.8810,1.88,0.51,1111122 
SCCF RECON,ioos:station:SCCF:53:1,2010-04-11T14:00:00Z,26.6493,-81.8810,1.89,0.59,1111122 
SCCF RECON,ioos:station:SCCF:53:1,2010-04-11T15:00:00Z,26.6493,-81.8810,1.95,0.67,1111122 
SCCF RECON,ioos:station:SCCF:53:1,2010-04-11T16:00:00Z,26.6493,-81.8810,1.987,0.71,1111122 
SCCF RECON,ioos:station:SCCF:53:1,2010-04-11T17:00:00Z,26.6493,-81.8810,2.06,0.81,1111122 
SCCF RECON,ioos:station:SCCF:53:1,2010-04-11T18:00:00Z,26.6493,-81.8810,2.07,1.04,1111122 
SCCF RECON,ioos:station:SCCF:53:1,2010-04-11T19:00:00Z,26.6493,-81.8810,2.05,1.02,1111122 
SCCF RECON,ioos:station:SCCF:53:1,2010-04-11T20:00:00Z,26.6493,-81.8810,2.013,0.77,1111122 